Location: *
(46.1500°N, 5.4100°E)
Time: 08:35:05
(UTC+00:00)

Daily predictions for brighter satellites

Satellite Brightness Start Highest point End
(mag) Time Altitude Azimuth Time Altitude Azimuth Time Altitude Azimuth
Cosmos 2184 Rocket 4.2 18:07:16 10° N 18:13:20 50° ENE 18:19:23 10° SSE
COSMOS 2455 3.0 18:07:45 10° NNW 18:13:45 62° NE 18:19:42 10° SE
USA 234 4.4 18:11:29 10° NE 18:17:31 41° NNW 18:23:33 10° W
Cosmos 1666 4.5 18:15:01 10° SW 18:18:31 37° WNW 18:22:02 10° N
Cosmos 2333 Rocket 2.8 18:14:29 10° NNW 18:19:51 40° NE 18:25:13 10° SE
COBE Rocket 4.4 18:14:56 10° N 18:19:53 69° WNW 18:24:57 10° SSW
BREEZE-M DEB (TANK) 3.3 18:17:52 10° W 18:20:03 29° SSW 18:22:04 10° SSE
Resurs 01 Rocket 3.7 18:20:00 10° ENE 18:21:03 11° ENE 18:22:06 10° NE
Cosmos 405 2.9 18:17:47 10° N 18:21:18 89° ENE 18:24:47 10° S
USA 186 3.3 18:21:14 10° ESE 18:23:50 21° ENE 18:26:31 10° NNE
Okean 2 Rocket 3.2 18:21:42 10° S 18:26:10 86° W 18:30:42 10° N
Okean 1 Rocket 4.0 18:22:39 10° SE 18:26:17 27° E 18:29:57 10° NNE
GP-B 3.3 18:25:09 10° NNE 18:29:28 48° E 18:33:45 10° SSE
ATLAS 2AS CENTAUR R/B 3.2 18:22:35 10° NW 18:30:14 56° NE 18:37:16 10° ESE
ADEOS Rocket 4.4 18:24:31 10° NE 18:30:23 25° E 18:36:29 10° SE
H-2A R/B 3.1 18:26:41 10° ESE 18:30:34 24° ENE 18:34:31 10° N
Cosmos 1544 3.8 18:31:06 10° SSE 18:34:15 30° E 18:37:27 10° NNE
Cosmos 2237 Rocket 3.5 18:30:15 10° N 18:34:52 24° NE 18:39:01 12° E
Cosmos 2251 Rocket 3.6 18:29:45 10° NNW 18:35:10 77° ENE 18:40:32 10° SSE
Cosmos 1441 Rocket 3.9 18:34:04 10° SSE 18:37:30 32° E 18:40:55 10° NNE
SAR-Lupe-2 3.9 18:35:14 10° NNE 18:38:40 41° E 18:42:04 10° S
GEOS 3 Rocket 3.8 18:34:35 10° SSE 18:39:41 72° SW 18:44:49 10° NW
Aureole 1 Rocket 3.3 18:38:40 10° NNW 18:44:20 66° ENE 18:48:32 10° SSE
MOS 1 4.3 18:39:12 10° SSE 18:44:51 70° ENE 18:50:32 10° N
Timation 2 Rocket 4.0 18:39:01 10° SSW 18:45:35 68° ESE 18:51:55 10° NNE
Cosmos 2327 Rocket 4.5 18:39:24 10° N 18:45:40 67° E 18:51:47 10° SSE
SJ-6B 3.4 18:43:17 10° SE 18:47:09 40° ENE 18:51:00 10° N
Nadezhda 1 Rocket 4.0 18:41:50 10° S 18:47:45 58° E 18:53:41 10° NNE
Cosmos 1939 Rocket 3.3 18:45:44 10° S 18:49:34 63° WSW 18:53:25 10° NNW
Cosmos 1536 Rocket 3.7 18:45:50 10° NNW 18:50:11 75° W 18:54:29 10° S
Cosmos 1025 Rocket 3.2 18:52:40 10° NNW 18:56:57 75° W 19:01:12 10° S
Cosmos 1707 3.2 18:53:43 10° N 18:57:25 39° ENE 19:00:07 16° SE
ASTEX 1 3.4 18:53:55 10° NNE 18:58:44 55° E 19:03:30 10° S
CZ-2C R/B 3.7 18:54:19 10° NNE 18:58:44 57° E 19:03:06 10° S
Meteor 2-15 Rocket 4.4 18:53:48 10° S 18:59:54 74° E 19:06:03 10° NNE
Meteor 2-15 4.5 18:55:24 10° S 19:01:32 89° WNW 19:07:44 10° N
Cosmos 2333 4.4 18:57:12 10° NNW 19:02:51 74° WSW 19:08:31 10° SSE
SL-16 R/B 3.9 18:59:08 10° N 19:02:57 18° NE 19:05:35 14° ENE
Cosmos 389 Rocket 3.4 19:00:47 10° NNE 19:03:46 27° ENE 19:04:27 25° E
NOSS 0 Rocket 4.1 18:59:33 10° NNW 19:05:39 54° NE 19:10:04 19° SE
CZ-2C R/B 4.0 19:04:05 20° ESE 19:06:44 31° ENE 19:11:27 10° N
Meteor 1-12 Rocket 4.3 19:01:29 10° S 19:07:15 89° W 19:12:58 10° N
COSMOS 2428 2.7 19:05:13 10° NNW 19:10:56 89° WSW 19:16:11 12° SSE
Meteor 1-4 Rocket 3.5 19:11:09 10° NNE 19:14:16 27° ENE 19:14:27 27° ENE
Cosmos 2219 Rocket 2.2 19:09:46 10° NNW 19:15:24 85° WSW 19:20:22 13° SSE
Cosmos 2341 Rocket 4.0 19:12:32 10° N 19:18:45 59° ENE 19:23:53 15° SSE
Meteor 1-15 Rocket 4.4 19:14:56 10° SSE 19:20:25 49° E 19:26:02 10° NNE
Ariane Rocket 4.5 19:15:48 10° SSW 19:20:28 37° W 19:25:11 10° NNW
Cosmos 2181 Rocket 4.3 19:17:25 10° SSE 19:23:14 44° E 19:29:10 10° NNE
Cosmos 2056 Rocket 4.1 19:20:41 10° SSE 19:25:33 35° ESE 19:30:26 10° NE
Cosmos 2360 Rocket 4.3 19:21:05 10° NW 19:25:36 25° WSW 19:30:06 10° SSW
FREGAT/IRIS 4.5 19:25:24 10° SSW 19:27:53 28° W 19:30:24 10° NW
Cosmos 407 Rocket 3.5 19:28:11 10° NNW 19:33:17 58° ENE 19:35:14 35° SE
SL-08 RB Rocket 3.8 19:31:35 33° SE 19:33:26 57° ENE 19:38:03 10° N
CZ-2C R/B 4.2 19:30:39 10° NE 19:33:16 19° ENE 19:33:16 19° ENE
Cosmos 2219 3.3 19:30:06 10° S 19:35:41 55° ESE 19:41:18 10° NE
NOSS 3-4 (A) 3.8 19:30:36 10° NW 19:37:37 85° NE 19:42:04 28° SE
SPOT 3 Rocket 3.8 19:32:36 10° S 19:37:42 68° WSW 19:42:51 10° NNW
NOSS 3-4 (C) 3.8 19:30:42 10° NW 19:37:43 85° NE 19:42:07 28° SE
Cosmos 1624 Rocket 4.2 19:33:08 10° S 19:38:03 45° ESE 19:42:59 10° NNE
Cosmos 2227 Rocket 2.8 19:38:55 34° E 19:38:55 34° E 19:43:41 10° NE
Cosmos 1461 3.5 19:36:03 10° SW 19:39:58 52° NW 19:43:52 10° NNE
Cosmos 1437 Rocket 4.0 19:38:27 10° N 19:40:57 26° NE 19:40:57 26° NE
Cosmos 2218 Rocket 4.2 19:35:38 10° N 19:41:54 54° ENE 19:44:33 33° SE
Cosmos 614 Rocket 4.0 19:36:49 10° NNW 19:42:03 66° ENE 19:43:50 40° SE
Cosmos 1544 Rocket 4.3 19:44:31 36° ENE 19:44:31 36° ENE 19:47:57 10° NNE
Cosmos 1455 Rocket 3.2 19:44:43 49° E 19:44:45 49° E 19:49:03 10° NNE
SL-8 R/B 3.7 19:42:46 10° WSW 19:47:34 81° NNW 19:49:22 39° ENE
Cosmos 2366 rocket 4.1 19:43:26 10° N 19:49:43 57° ENE 19:52:02 37° SE
Cosmos 2297 Rocket 2.4 19:48:53 40° SE 19:49:50 44° ESE 19:55:11 10° NE
Cosmos 405 Rocket 2.9 19:54:00 53° NNE 19:54:00 53° NNE 19:56:58 10° NNE
ARGOS 3.3 19:49:52 21° S 19:53:29 73° WSW 19:58:54 10° NNW
Cosmos 1954 Rocket 4.3 19:48:28 10° N 19:53:30 45° ENE 19:54:07 43° E
USA 186 4.1 19:51:57 11° SSW 19:54:39 25° W 19:57:32 10° NW
MetOp-B 4.4 19:54:34 43° E 19:55:17 46° ENE 20:00:24 10° N
Cosmos 864 Rocket 4.5 19:50:11 10° N 19:56:20 61° ENE 19:58:18 42° SE
Resurs 01 Rocket 1.5 19:55:57 59° SSE 19:56:47 82° ENE 20:01:14 10° NNW
Meteor 1-24 Rocket 4.0 19:51:21 10° N 19:56:55 49° ENE 19:57:50 45° ESE
Resurs 1-3 3.6 19:55:46 43° S 19:57:11 77° WSW 20:01:36 10° NNW
Spot 2 Rocket 3.6 19:57:18 49° E 19:57:47 51° ENE 20:02:41 10° N
USA 234 4.4 19:54:50 15° ENE 19:59:36 35° N 20:05:24 10° WNW
ERS-1 Rocket 4.3 20:00:24 25° NE 20:00:24 25° NE 20:03:58 10° N
SL-8 Rocket 3.9 19:55:33 10° N 20:01:48 86° E 20:04:44 34° S
Cosmos 2333 Rocket 3.5 19:58:56 10° NW 20:04:05 36° WSW 20:08:27 14° SSW
Cosmos 1626 Rocket 4.5 20:00:07 10° N 20:03:10 35° NE 20:03:10 35° NE
Cosmos 1140 Rocket 3.3 20:00:56 10° NNW 20:06:09 74° ENE 20:06:49 64° ESE
Meteor 2-5 Rocket 3.7 20:01:11 10° N 20:07:01 80° ENE 20:08:43 49° SSE
Cosmos 1371 Rocket 3.9 20:02:49 10° SSW 20:08:08 88° WNW 20:13:31 10° NNE
H-2A R/B 2.8 20:06:40 21° SSW 20:09:43 47° W 20:14:33 10° NNW
SL-24 R/B 4.2 20:10:06 61° SSW 20:10:49 76° WSW 20:15:36 10° NNW
ADEOS Rocket 3.6 20:09:09 10° N 20:16:20 74° WNW 20:24:01 10° SSW
Cosmos 1959 Rocket 4.4 20:10:53 10° N 20:17:02 88° W 20:19:02 46° S
Terra 3.8 20:18:42 17° NE 20:18:42 17° NE 20:20:38 10° NNE
Cosmos 2237 Rocket 2.4 20:13:46 10° NNW 20:19:27 68° WSW 20:20:51 49° S
MetOp-A 4.4 20:18:46 41° SSW 20:20:33 64° WSW 20:25:54 10° NNW
ATLAS 2AS CENTAUR R/B 3.8 20:14:02 10° NW 20:21:03 42° WSW 20:24:53 23° S
Cosmos 676 Rocket 3.8 20:18:27 10° NNW 20:23:46 85° ENE 20:23:53 83° ESE
Cosmos 1980 4.2 20:22:30 10° NW 20:28:00 54° WSW 20:29:21 44° SSW
Meteor 1-22 Rocket 4.2 20:27:37 69° SE 20:28:10 75° E 20:34:18 10° NNE
Cosmos 1674 4.2 20:29:43 10° NNW 20:31:52 32° NNW 20:31:52 32° NNW
CZ-2C R/B 4.2 20:45:09 34° SW 20:46:27 40° W 20:51:32 10° NNW
SL-16 R/B 2.2 20:42:15 10° NNW 20:47:27 74° N 20:47:27 74° N
SPOT 1/Viking Rocket 4.4 21:09:52 48° NNW 21:09:52 48° NNW 21:13:34 10° NNW
SPOT 5 4.3 21:11:43 33° N 21:11:43 33° N 21:14:27 10° N
CZ-2C R/B 3.3 21:10:03 10° N 21:14:46 56° NW 21:14:46 56° NW
Cosmos 2227 Rocket 3.3 21:20:30 30° W 21:22:34 41° NW 21:27:57 10° NNE
BREEZE-M DEB (TANK) 4.4 21:17:13 10° WNW 21:22:41 88° SSW 21:24:37 64° ESE
Nadezhda 3 Rocket 4.4 21:25:13 59° NNW 21:25:13 59° NNW 21:30:18 10° N
Resurs 01 Rocket 4.5 21:33:32 11° W 21:33:51 11° W 21:35:02 10° WNW
Cosmos 2297 Rocket 3.7 21:30:18 17° WSW 21:34:00 34° NW 21:39:08 10° NNE
USA 234 3.7 21:42:11 53° NNE 21:42:11 53° NNE 21:48:11 10° NW
Terra 4.1 21:57:36 22° NNW 21:57:36 22° NNW 21:59:20 10° NNW
CZ-4C R/B 3.9 23:07:48 10° NNW 23:12:51 40° N 23:12:51 40° N
Cosmos 2263 Rocket 4.4 23:39:46 21° N 23:39:46 21° N 23:42:00 10° NNE
